sat.trackr.live / text

‹ back to catalog

STARLINK-37622

NORAD 69829 · 2026-154L

PAYLOAD ACTIVE UNKNOWN

§ Identity

Operator
Country
US
Launch date
2026-07-05
Launch site
AFETR
Launch vehicle
Mass (kg)
RCS (m²)

Purposes: comms

External: N2YO · Heavens-Above · Gunter

§ Orbital elements

Epoch: 2026-09-20T05:14:49.524864Z

Period
93.85 min
Inclination
53.1569°
Eccentricity
0.0001391
Mean motion
15.34390557 rev/d
Perigee alt
461.8 km
Apogee alt
463.7 km
Semi-major
6,840.9 km
B*
2.3365e-4
RAAN
333.1382°
Arg perigee
83.0681°
Mean anomaly
277.0479°
Rev number
1,319

§ Raw data

STARLINK-376221 69829U 26154L   26263.21862876  .00007524  00000+0  23365-3 0  99902 69829  53.1569 333.1382 0001391  83.0681 277.0479 15.34390557 13190

JSON: /api/v1/satellites/69829 · /tle

For live sub-satellite position, see the globe view (requires WebGL).

§ Visibility from observer

Set your observer location to see the next 7 days of passes ≥ 10°. The values pass through the URL so the page stays shareable.

No JS? Fill the form by hand. The geolocation button needs JavaScript.